FENGYUN 1C DEB

Satellite information

Favourite Embed

Satellite Type and Status

DEBRISIN ORBIT

Key statistics

Satellite FENGYUN 1C DEB at a glance.

Uptime

9715

Days in orbit

Revolutions

≈ 14.3

Per day

Orbit

SSO

Sun Synchronous Orbit

Inclination

98.5

Latest

Satellite identification and parameters

Extended collection of information and parameters for FENGYUN 1C DEB.

Object identification

Identified? True

Debris? True

Object name: FENGYUN 1C DEB

International designator: 1999-025ZG

Object number (NORAD): 30295

Object ID (CCSDS): 30295

Country: PEOPLES REPUBLIC OF CHINA (PRC)

Current information (Y/N): Y

RCS size: SMALL

Orbital parameters

Period: 101.05 minutes

Inclination: 98.5083 deg

SMA: 7186.484 km

Apoapsis: 876.28 km

Periapsis: 740.419 km

RAAN: 8.4887 deg

Eccentricy: 0.0094526

Argument of periapsis: 84.5712 deg

Mean anomaly: 337.3495 deg

Mean motion: 14.25043182 rev/day

Mean motion (dot): 0.00000547 rev/day2

B* drag term: 0.00023985 1/REarth

Two-line elements (TLE)

Creation date: Dec. 12, 2025, 7:26 a.m.

Reference frame: TEME

Reference center: EARTH

Epoch: Dec. 12, 2025, 12:26 a.m. UTC

TLE line 0: 0 FENGYUN 1C DEB

TLE line 1: 1 30295U 99025ZG 25346.01847920 .00000547 00000-0 23985-3 0 9991

TLE line 2: 2 30295 98.5083 8.4887 0094526 84.5712 337.3495 14.25043182981666

Live tracking on map

Real-time ground track for satellite FENGYUN 1C DEB.

In-orbit conjunctions

A list of the most updated potential collisions computed for object FENGYUN 1C DEB.

Target Orbit TCA Probability of collision Miss distance Type
CZ-6A DEB LEO 2025-04-09 23:30:40 0.0001213526 216.0 (m) DEBRIS
CZ-6A DEB LEO 2024-12-22 21:18:34 0.0001776601 884.0 (m) DEBRIS

Associated space launch

Chinese polar orbiting meteorological satellite

FENGYUN 1C DEB was lifted into orbit during the mission ‘Long March 4B | Feng Yun 1C’, on board a Long March 4B space rocket.

The launch took place on May 10, 1999, 1:33 a.m. from Launch Complex 7.

For more information about the launch, click the button.

Launch to space Long March 4B | Feng Yun 1C
Long March 4B | Feng Yun 1C

Agency: N/A

Status: Launch Successful

Launch date: May 10, 1999, 1:33 a.m. UTC

Rocket: Long March 4B

Launch pad: Launch Complex 7

Location: Taiyuan Satellite Launch Center, People's Republic of China

...

Latest news about this satellite

There are no fresh news available about this satellite. Check back as we update our databases every day.


Newsletter sign-up

Weekly statistics, charts and insights to help you stay on top of the space industry.